Regional Weather Roundup
Issued by NWS

Home | Current Version | Previous Version | Graphics & Text | Print | Product List | Glossary On
Versions: 1 2 3 4 5 6 7 8 9 10 11 12 13 14 15 16 17 18 19 20 21 22 23 24 25 26 27 28 29 30 31 32 33 34 35 36 37 38 39 40 41 42 43 44 45 46 47 48 49 50
107
ASUS43 KDMX 131808
RWRIA

WEATHER ROUNDUP FOR IOWA
NATIONAL WEATHER SERVICE DES MOINES IA
1200 PM CST SAT FEB 13 2016

NOTE: "FAIR" INDICATES FEW OR NO CLOUDS BELOW 12,000 FEET WITH NO
SIGNIFICANT WEATHER AND/OR OBSTRUCTIONS TO VISIBILITY.

* - THESE STATIONS ARE NOT NWS STATIONS...THUS NOT UNDER NWS
QUALITY CONTROL.  THEY ALSO DO NOT REPORT WEATHER SUCH
AS PRECIPITATION OR FOG.

IAZ001>003-012>014-020>022-031>034-043>046-131900-
   NORTHWEST IOWA

CITY           SKY/WX    TMP DP  RH WIND       PRES   REMARKS
CARROLL *      CLOUDY     5   0  78 SE12      30.53F WCI -11
CHEROKEE *     CLOUDY     8   0  72 SE8       30.51F WCI  -5
DENISON *      CLOUDY     9   1  72 SE10      30.49F WCI  -6
LE MARS *      CLOUDY     9   1  72 SE10      30.50F WCI  -6
ORANGE CITY *  CLOUDY     7   0  72 SE8       30.46F WCI  -6
SHELDON *      CLOUDY     5  -2  72 SE14      30.46F WCI -12
SIOUX CITY     CLOUDY    10   1  67 SE13      30.50F WCI  -5
6HR MIN TEMP:   6; 6HR MAX TEMP:  10;

SPENCER        CLOUDY     4  -5  66 SE12      30.51F WCI -12
6HR MIN TEMP:  -4; 6HR MAX TEMP:   4;

STORM LAKE *   CLOUDY     5   0  78 SE12      30.49F WCI -11
$$

IAZ055>058-069>071-079>083-090>094-131900-
   SOUTHWEST IOWA

CITY           SKY/WX    TMP DP  RH WIND       PRES   REMARKS
ATLANTIC *     CLOUDY    12   1  62 SE8       30.53F WCI   1
AUDUBON *      CLOUDY    10   1  67 SE10      30.52F WCI  -3
CLARINDA *     CLOUDY    16   0  48 SE8       30.57F WCI   5
COUNCIL BLFS * MOSUNNY   12   3  67 SE10      30.51F WCI  -1
CRESTON *      CLOUDY    12  -2  52 E8        30.55F WCI   1
HARLAN  *      CLOUDY    10   3  72 SE13      30.56F WCI  -5
LAMONI         CLOUDY    13  -1  54 VRB5      30.55F WCI   5
6HR MIN TEMP:   6; 6HR MAX TEMP:  13;

RED OAK *      CLOUDY    14   3  62 E12       30.55F WCI   0
SHENANDOAH *   CLOUDY    16   1  53 SE9       30.56F WCI   4
$$

IAZ047>049-059>061-072>074-084-131900-
   CENTRAL IOWA

CITY           SKY/WX    TMP DP  RH WIND       PRES   REMARKS
AMES           CLOUDY     7  -4  60 SE6       30.60F WCI  -3
6HR MIN TEMP:   0; 6HR MAX TEMP:   7;

ANKENY *       CLOUDY    10  -4  52 SE5       30.60F WCI   2
BOONE *        CLOUDY     5  -2  72 SE7       30.56F WCI  -7
CHARITON *     CLOUDY    12  -4  48 SE3       30.58F
DES MOINES     CLOUDY    10  -4  53 S8        30.59F WCI  -2
6HR MIN TEMP:   4; 6HR MAX TEMP:  10;

GRINNELL*      MOSUNNY   10  -4  52 CALM      30.59F
KNOXVILLE *    CLOUDY    10  -6  48 CALM      30.59F
MARSHALLTOWN   PTSUNNY    8  -2  63 VRB3      30.59F
6HR MIN TEMP:  -3; 6HR MAX TEMP:   9;

NEWTON *       CLOUDY     9  -4  56 CALM      30.59F
PELLA *        SUNNY     13  -4  46 CALM      30.62F
$$

IAZ004>006-015-016-023>025-035-036-131900-
   NORTH CENTRAL IOWA

CITY           SKY/WX    TMP DP  RH WIND       PRES   REMARKS
ALGONA *       CLOUDY     5  -2  72 S8        30.54F WCI  -8
CLARION *      CLOUDY     5  -6  61 S7        30.57F WCI  -7
ESTHERVILLE    CLOUDY     3  -3  76 SE13      30.52F WCI -14
6HR MIN TEMP:  -5; 6HR MAX TEMP:   3;

FORT DODGE *   CLOUDY     5  -4  66 E8        30.57F WCI  -8
MASON CITY     SUNNY      2  -6  69 SE7       30.58F WCI -11
6HR MIN TEMP:  -7; 6HR MAX TEMP:   2;

FOREST CITY *  SUNNY      5  -6  61 S8        30.56F WCI  -8
WEBSTER CITY * CLOUDY     5  -6  61 SE7       30.55F WCI  -7
IOWA FALLS *   CLOUDY     9  -4  56 SE6       30.58F HAZE    WCI  -1
$$

IAZ007>011-017>019-026>030-037>042-050>054-066-131900-
   NORTHEAST IOWA

CITY           SKY/WX    TMP DP  RH WIND       PRES   REMARKS
CEDAR RAPIDS   SUNNY     11  -5  48 NW3       30.60F
6HR MIN TEMP:   1; 6HR MAX TEMP:  12;

CHARLES CITY * SUNNY      3 -13  47 CALM      30.58F
CLINTON *      SUNNY     17  -4  39 N6        30.62F WCI   9
DECORAH *      SUNNY      3 -11  51 CALM      30.57F
DUBUQUE        SUNNY      8  -9  45 NW7       30.58F WCI  -3
6HR MIN TEMP:  -2; 6HR MAX TEMP:   8;

MONTICELLO *   SUNNY      9  -9  43 NW5       30.61F WCI   0
OELWEIN *      SUNNY      3 -11  51 CALM      30.59F
WATERLOO       CLOUDY     5  -7  57 N3        30.61F
6HR MIN TEMP:  -4; 6HR MAX TEMP:   5;

$$

IAZ064-065-067-068-078-131900-
   EAST CENTRAL IOWA

CITY           SKY/WX    TMP DP  RH WIND       PRES   REMARKS
DAVENPORT      SUNNY     13  -7  40 MISG      30.62F
IOWA CITY      SUNNY     14  -7  38 CALM      30.64F
6HR MIN TEMP:   2; 6HR MAX TEMP:  15;

MT. PLEASANT * SUNNY     18  -2  41 CALM      30.62F
MUSCATINE *    SUNNY     16  -8  35 VRB7      30.65F WCI   6
QUAD CITIES    SUNNY     15  -9  33 VRB7      30.62F WCI   5
6HR MIN TEMP:   4; 6HR MAX TEMP:  15;

$$

IAZ062-063-075>077-085>089-095>099-131900-
   SOUTHEAST IOWA

CITY           SKY/WX    TMP DP  RH WIND       PRES   REMARKS
BURLINGTON     SUNNY     15  -3  44 W6        30.62F WCI   6
6HR MIN TEMP:   4; 6HR MAX TEMP:  15;

FAIRFIELD *    SUNNY     12  -6  44 CALM      30.61F
FORT MADISON * SUNNY     16  -2  45 NW5       30.62F WCI   9
KEOKUK *       SUNNY     16  -2  45 VRB5      30.62F WCI   9
OSKALOOSA *    PTSUNNY   12  -1  55 CALM      30.61F
CENTERVILLE *  MOSUNNY   14   0  52 CALM      30.59F
OTTUMWA        CLOUDY    11  -5  48 CALM      30.61F
6HR MIN TEMP:   3; 6HR MAX TEMP:  12;

WASHINGTON *   SUNNY     14  -4  44 N5        30.63F WCI   6
$$

ABBREVIATIONS USED IN REMARKS
   TC - TEMPERATURES IN CELSIUS
  WCI - WIND CHILL INDEX
   HX - HEAT INDEX
  VSB - VISIBILITY
$$





USA.gov is the U.S. government's official web portal to all federal, state and local government web resources and services.